Regional Weather Roundup
Issued by NWS Charleston, SC

Current Version | Previous Version | Text Only | Print | Product List | Glossary Off
Versions: 1 2 3 4 5 6 7 8 9 10 11 12 13 14 15 16 17 18 19 20 21 22 23 24 25 26 27 28 29 30 31 32 33 34 35 36 37 38 39 40 41 42 43 44 45 46 47 48 49 50

000
ASUS42 KCHS 242012
RWRCHS

REGIONAL WEATHER ROUNDUP
NATIONAL WEATHER SERVICE CHARLESTON SC
400 PM EDT MON APR 24 2017

NOTE: "FAIR" INDICATES FEW OR NO CLOUDS BELOW 12,000 FEET WITH NO
SIGNIFICANT WEATHER AND/OR OBSTRUCTIONS TO VISIBILITY.

NOT ALL STATIONS ARE QUALITY CONTROLLED. USE DATA WITH CAUTION...
ESPECIALLY DEWPOINT OBSERVATIONS.

SCZ027-030-031-034>040-042>050-242100-
...SOUTHEAST SOUTH CAROLINA...

CITY           SKY/WX    TMP DP  RH WIND       PRES   REMARKS
N CHARLESTON   LGT RAIN  71  65  81 N6        29.60F
WATERFRONT PRK   N/A     73  68  84 S12       29.58F
JOHNS ISLAND   MOCLDY    75  66  73 S15       29.60F
PINOPOLIS        N/A     66  64  94 E7        29.54
MONCKS CORNER  RAIN      64  63  94 N3        29.61F
SUMMERVILLE    MOCLDY    72  66  83 NE5       29.62F
BEAUFORT MCAS  MOSUNNY   79  51  37 W15G24    29.61F
BEAUFORT ARPT  FAIR      77  52  41 W17G24    29.61F
HILTON HEAD IS MOSUNNY   77  61  57 W12G22    29.63
WALTERBORO     MOCLDY    73  59  60 W7        29.61F
ALLENDALE      FAIR      73  59  60 VRB5      29.61F

...SOUTHERN MIDLANDS AND PEE DEE...

CITY           SKY/WX    TMP DP  RH WIND       PRES   REMARKS
GEORGETOWN     RAIN      68  68 100 CALM      29.64S
KINGSTREE      HVY RAIN  61  59  94 N9        29.65F
ORANGEBURG     CLOUDY    67  63  87 N8        29.63F
BARNWELL       CLOUDY    68  64  88 N9G16     29.64F
AIKEN          CLOUDY    57  54  88 N14       29.71F
MANNING        CLOUDY    63  61  94 MISG      29.64F
COLUMBIA       LGT RAIN  60  57  89 N7        29.67F VSB 1
SUMTER         DRIZZLE   62  60  94 NE14      29.63F
FLORENCE       LGT RAIN  62  61  96 N10       29.69F
MYRTLE BEACH   CLOUDY    68  64  88 N9        29.65S
N MYRTLE BEACH CLOUDY    67  66  97 N7        29.64F

$$

GAZ063-065-086>088-099>101-113>116-118-119-134>141-150-242100-
...SOUTHEAST GEORGIA...

CITY           SKY/WX    TMP DP  RH WIND       PRES   REMARKS
SAVANNAH ARPT  PTSUNNY   77  49  37 W17       29.64F
HUNTER AAF     MOSUNNY   77  56  49 W16G22    29.61F
FORT STEWART   CLOUDY    71  52  49 W12       29.63F
STATESBORO     PTSUNNY   74  53  48 W9G17     29.65S
SYLVANIA       CLOUDY   N/A N/A N/A W7        29.65F
CLAXTON        MOCLDY    73  56  55 SW9G18    29.66F

...CSRA...CENTRAL AND FAR SOUTHEAST GEORGIA...

CITY           SKY/WX    TMP DP  RH WIND       PRES   REMARKS
THOMSON        CLOUDY    63  56  79 SE6       29.74F
AUGUSTA-BUSH   CLOUDY    65  56  72 N9        29.67F
AUGUSTA-DANIEL CLOUDY    63  53  70 N10       29.69F
SWAINSBORO       N/A     70  57  64 NW13      29.68S
VIDALIA        CLOUDY    70  54  56 W13       29.67F
EASTMAN        MOCLDY    67  49  53 W7        29.72S
HAZLEHURST     FAIR      72  54  53 W8        29.67F
ALMA           CLOUDY    67  53  61 W8        29.69F
WAYCROSS       CLOUDY    72  54  52 W13       29.69F
JESUP          CLOUDY    70  48  46 W9G16     29.68S
BAXLEY         CLOUDY    68  55  64 W9        29.68F
BRUNSWICK      PTSUNNY   75  55  50 W10G22    29.66F
SAINT SIMONS   MOSUNNY   76  52  43 W14G22    29.64F

$$

SCZ027-028-034-036>038-045-046-048>050-GAZ119-141-242100-
...LAKE AND SUPPLEMENTAL COASTAL OBSERVATIONS...

STATION/POSITION TIME  TEMP    WIND        PRES    WAVE   SWELL
                       AIR SEA DIR/SP/G            HT/PER HT/PER/DIR
                 (UTC) (F)     (DEG/KT/KT) (MB)    (FT/S) (FT/S/D)
WINYAH BAY       NOT AVBL
LAKE MURRAY      1920   58     360/  3/  9 1005.4S
ACE BASIN NERRS  NOT AVBL
FORT PULASKI     1942   73 75  270/  9/ 13 1003.5F
SAPELO ISLAND    1900   74     260/ 14     1004.0

$$

ANZ835-935-AMZ111-154-330-350-352-354-370-450-454-472-242100-
...C-MAN AND BUOY OBSERVATIONS...

STATION/POSITION TIME  TEMP    WIND        PRES    WAVE   SWELL
                       AIR SEA DIR/SP/G            HT/PER HT/PER/DIR
                 (UTC) (F)     (DEG/KT/KT) (MB)    (FT/S) (FT/S/D)
BUOY 41004       1950   69 74  220/ 12/ 16 1003.0S   7/ 8   5/150/ 8
BUOY 41008       1850   72 72  250/ 14/ 17 1004.1    4/ 8   3/100/ 8
FOLLY BEACH CMAN 1900   72     170/ 10/ 12 1003.9F
CAPERS NEARSHORE 1908   72 72  180/ 10/ 14 1003.3F
FRIPP NEARSHORE  1908   73 73  240/ 12/ 17 1003.2F


STATION/POSITION TIME  TEMP    WIND        PRES    WAVE   SWELL
                       AIR SEA DIR/SP/G            HT/PER HT/PER/DIR
                 (UTC) (F)     (DEG/KT/KT) (MB)    (FT/S) (FT/S/D)
5E ST. MARYS GA  1930      73                N/A     3/ 8   2/ 90/12
FRYING PAN BUOY  1950   71 75  200/ 19/ 25 1002.9F   9/ 8   5/160/ 8
BUOY 41025       1950   76 79  130/ 29/ 37 1007.2F   9/ 8   3/ 60/11
CAPE LOOKOUT NC  1900   72     120/ 26/ 31 1006.5F
BUOY 41002       1950   68 75   40/ 29/ 35 1003.2F   9/ 8   8/150/ 8
BUOY 41010       1950   77 78  240/ 12/ 16 1004.5F   5/ 9   5/120/ 9
ST AUGUSTINE FL  2000   76 75  280/ 14/ 17 1005.2F


$$




USA.gov is the U.S. government's official web portal to all federal, state and local government web resources and services.